Regional Weather Roundup
Issued by NWS

Home | Current Version | Previous Version | Graphics & Text | Print | Product List | Glossary On
Versions: 1 2 3 4 5 6 7 8 9 10 11 12 13 14 15 16 17 18 19 20 21 22 23 24 25 26 27 28 29 30 31 32 33 34 35 36 37 38 39 40 41 42 43 44 45 46 47 48 49 50
000
ASUS44 KFWD 231715
RWRTX
NORTH TEXAS HOURLY WEATHER ROUNDUP
NATIONAL WEATHER SERVICE FORT WORTH TX
1200 PM CDT WED AUG 23 2017

NOTE: "FAIR" INDICATES FEW OR NO CLOUDS BELOW 12,000 FEET WITH NO
SIGNIFICANT WEATHER AND/OR OBSTRUCTIONS TO VISIBILITY.

TXZ118-119-231800-
DALLAS/FORT WORTH METROPLEX

CITY           SKY/WX    TMP DP  RH WIND       PRES   REMARKS
DFW AIRPORT    CLOUDY    85  70  60 CALM      30.02F
DALLAS LOVE    CLOUDY    84  69  60 E5        30.03F
FTW MEACHAM    CLOUDY    82  73  74 E5        30.04F
DAL-EXECUTIVE  CLOUDY    83  71  67 E3        30.03F
FTW-ALLIANCE   PTSUNNY   84  72  67 NE5       30.04F
FTW-SPINKS     PTSUNNY   81  73  78 CALM      30.06F
ARLINGTON      CLOUDY    82  70  66 CALM      30.04F
GRAND PRAIRIE  SUNNY     81  70  69 W7        30.05F
ADDISON        PTSUNNY   82  70  65 MISG      30.04F
MESQUITE       SUNNY     82  70  65 NE7       30.03F
LANCASTER      CLOUDY    84  67  56 E8        30.04S
$$

TXZ091>094-102>105-117-120-121-131>134-231800-
NORTH CENTRAL TEXAS

CITY           SKY/WX    TMP DP  RH WIND       PRES   REMARKS
SHRMAN/DENISON CLOUDY    77  71  82 CALM      30.06F
GAINESVILLE    PTSUNNY   80  71  74 E5        30.08S
BOWIE          CLOUDY    78  71  80 CALM      30.08S
BRIDGEPORT     CLOUDY    81  71  71 CALM      30.08F
DECATUR        CLOUDY    81  70  68 E5          N/A
DENTON         PTSUNNY   81  71  71 MISG      30.05S
MCKINNEY       CLOUDY    80  75  84 E3        30.04F
BONHAM         CLOUDY    75  72  88 CALM      30.05S
GREENVILLE     CLOUDY    86  70  58 CALM      30.03F HX  90
ROCKWALL       CLOUDY    84  71  63 NE6       30.04F
TERRELL        CLOUDY    86  69  56 NE10      30.03F HX  90
WAXAHACHIE     CLOUDY    82  69  64 NE6       30.04F
CLEBURNE       CLOUDY    82  73  74 VRB3      30.06F
GRANBURY       PTSUNNY   77  73  85 CALM      30.06F
$$

TXZ083>090-098>101-113>116-127>130-139>142-154-155-231800-
WESTERN NORTH TEXAS

CITY           SKY/WX    TMP DP  RH WIND       PRES   REMARKS
WICHITA FALLS  PTSUNNY   80  70  71 VRB3      30.08S
WF-KICKAPOO    CLOUDY    79  70  75 NE3       30.10S
VERNON         CLOUDY    80  65  60 NE6       30.11S
ABILENE        PTSUNNY   81  70  69 NW7       30.10F
ABILENE-DYESS  PTSUNNY   82  69  65 N5        30.09F
GRAHAM         CLOUDY    78  71  80 N3        30.08S
BRECKENRIDGE   CLOUDY    80  69  70 CALM      30.09R
CISCO          CLOUDY    81  70  69 E8        30.11S
EASTLAND       CLOUDY    81  71  71 E7        30.09S
RANGER         LGT RAIN  76  71  84 N5        30.09S
MINERAL WELLS  PTSUNNY   82  72  71 CALM      30.05S
STEPHENVILLE   CLOUDY    75  71  87 CALM      30.10S
COMANCHE       CLOUDY    81  74  79 E10       30.08F
BROWNWOOD      CLOUDY    82  68  61 NE7       30.08S
COLEMAN        PTSUNNY   83  68  60 E6        30.09F
$$

TXZ143>147-156>162-174-175-231800-
CENTRAL TEXAS

CITY           SKY/WX    TMP DP  RH WIND       PRES   REMARKS
WACO           MOSUNNY   88  72  58 NE9       30.01S HX  94
WACO-MCGREGOR  MOSUNNY   89  73  59 N14       30.02S HX  97
HILLSBORO      MOSUNNY   87  71  57 NE13      30.03S HX  92
CORSICANA      SUNNY     89  73  59 NE8       30.02F HX  97
MEXIA          SUNNY     91  70  49 NE3       29.99F HX  97
HEARNE         SUNNY     91  69  48 S3        30.00F HX  95
CAMERON        SUNNY     92  69  46 CALM      29.98F HX  97
TEMPLE         MOSUNNY   94  70  45 W6        30.01F HX 100
KILLEEN        SUNNY     89  69  52 NW10      30.01F HX  93
KILLEEN-SKYLRK SUNNY     90  71  53 NW8       30.02S HX  96
FORT HOOD      SUNNY     88  70  54 N9        29.99F HX  93
GATESVILLE       N/A     88  70  55 CALM      30.05  HX  92
HAMILTON       CLOUDY    83  70  63 E6        30.07F
$$

TXZ095>097-106>112-122>126-135>138-148>153-164>167-231800-
EAST TEXAS

CITY           SKY/WX    TMP DP  RH WIND       PRES   REMARKS
PARIS          CLOUDY    81  70  69 NE3       30.03F
SULPHUR SPRNGS CLOUDY    84  71  64 E3        30.04F
MOUNT PLEASANT PTSUNNY   86  74  68 E7        30.02F HX  94
GILMER         MOSUNNY   84  74  72 E6        30.00F HX  92
MINEOLA        CLOUDY    81  73  78 E5        30.02F
TYLER          CLOUDY    81  75  82 NE7       30.02F
LONGVIEW       MOSUNNY   88  77  69 E5        29.99F HX 100
MARSHALL         N/A     87  74  65 NE6       30.02F HX  94
ATHENS         PTSUNNY   82  72  69 E5        30.00F
PALESTINE      CLOUDY    88  73  60 CALM      30.01F HX  95
JACKSONVILLE   SUNNY     87  73  64 NW5       30.03F HX  94
HENDERSON      MOSUNNY   88  75  66 N3        30.01F HX  97
CENTER         SUNNY     91  77  64 N5        30.01S HX 105
NACOGDOCHES    SUNNY     90  75  61 NW6       30.00F HX 100
LUFKIN         MOSUNNY   90  70  51 W8        29.99F HX  95
$$

SUPPLEMENTAL OBSERVATIONS (NWS FORT WORTH AREA)

CITY           SKY/WX    TMP DP  RH WIND       PRES   REMARKS
DENISON DAM      N/A     77  68  73 E1          N/A
CADDO GRASSLND   N/A     79  73  83 NW2         N/A
PAT MAYSE LAKE   N/A     81  75  83 N3          N/A
GREENVILLE       N/A     81  70  69 NE3         N/A
CEDAR HILL       N/A     86  70  58 N3          N/A  HX  90
LBJ GRASSLAND    N/A     84  70  61 S2          N/A
POSSUM KINGDOM   N/A     75  70  83 VRB3        N/A
GRANBURY         N/A     79  73  83 E3          N/A
COMANCHE         N/A     82  72  69 E10         N/A
MCGREGOR         N/A     90  70  51 N7G15       N/A  HX  95
TEMPLE           N/A     93  68  43 SW5         N/A  HX  97
LAKE LIMESTONE   N/A     93  68  43 NE5         N/A  HX  97
ATHENS           N/A     88  73  62 E5          N/A  HX  96
$$

SUPPLEMENTAL OBSERVATIONS (NWS NORMAN AREA)

CITY           SKY/WX    TMP DP  RH WIND       PRES   REMARKS
GOODLETT         N/A     77  66  69 NE6       30.13S
ODELL            N/A     80  72  76 N7        30.12F
CROWELL          N/A     80  70  72 NE10      30.13S
KNOX CITY        N/A     74  68  80 N7        30.13F
SEYMOUR          N/A     77  69  76 N1        30.11F
MILLERS CREEK    N/A     75  72  88 VRB6        N/A
$$

SUPPLEMENTAL OBSERVATIONS (NWS SAN ANGELO AREA)

CITY           SKY/WX    TMP DP  RH WIND       PRES   REMARKS
WEINERT          N/A     76  71  83 N3        30.12F
HASKELL          N/A     74  70  87 N9        30.12S
THROCKMORTON     N/A     76  71  86 N5        30.12S
STAMFORD         N/A     77  71  83 NW8       30.12S
CLYDE            N/A     81  69  68 NE1       30.12F
HAMBY            N/A     82  70  65 VRB6        N/A
$$

SUPPLEMENTAL OBSERVATIONS (NWS SHREVEPORT AREA)

CITY           SKY/WX    TMP DP  RH WIND       PRES   REMARKS
CLARKSVILLE      N/A     88  70  55 NE3         N/A  HX  92
TEXARKANA        N/A     84  75  74 N3          N/A  HX  92
LINDEN           N/A     86  70  58 E6          N/A  HX  90
CADDO LAKE       N/A     90  73  58 NE5         N/A  HX  98
GILMER           N/A     88  75  66 SE5         N/A  HX  97
HENDERSON        N/A     90  79  70 N6          N/A  HX 105
LUFKIN           N/A     91  73  55 MISG        N/A  HX 100
N SABINE NF      N/A     91  77  62 MISG        N/A  HX 105
S SABINE NF      N/A     90  73  58 NE6         N/A  HX  98
$$

SUPPLEMENTAL OBSERVATIONS ARE A COLLECTION OF AUTOMATED INSTRUMENTS
THAT ARE MAINTAINED BY A VARIETY OF FEDERAL AND STATE AGENCIES.
CERTAIN ELEMENTS...SUCH AS HUMIDITY VALUES AND SUSTAINED WIND
SPEEDS...MAY BE APPROXIMATED.




USA.gov is the U.S. government's official web portal to all federal, state and local government web resources and services.